Starlink 31593

operational
NORAD ID: 59350 Int'l Des: 2024-060 Owner: SPXS Country: US Constellation: starlink
LEOCIRCULAR

About Starlink 31593

Description loading...

Live Position

Loading 3D Globe...

Upcoming Passes

Altitude History

Altitude vs Time

uPlot chart will show altitude changes over time

Two-Line Element Set

1 59350U 24060C 25259.01841509 .00001067 00000-0 48256-4 0 9998
2 59350 43.0012 165.9195 0001301 273.4312 86.6391 15.27593662 83355
Epoch: Sep 16, 2025 • Age: 19 hours

Current Status

Altitude 483.6 km
Velocity 7.63 km/s
Sub-Earth Point 26.65°N, 93.97°W
Launch Date Mar 31, 2024
Age 1.4 years
Type internet

Technical Details

Classification Payload
Mass 730.00 kg
Dry Mass 700.00 kg
Total Mass 730.00 kg
Length 0.30 m
Diameter 4.10 m
Span 29.00 m
Shape Box + pan
Manufacturer SPXS
Bus Type Starlink V2M
Phase Status In Orbit
Owner/State SPXS/US

Large Constellations

Loading constellations...